• In Hungary
  • List of Countries
  • For 7 days
  • Water Temperature
  • Satellite Maps
  • Weather Map
  • News
  • Weather Widgets
  • user-avatar
    Login

    Hourly Weather Stantsiine

    Today, 18 October, Wednesday

    Time Temperature Precipitation Wind Pressure Humidity
    00:00 +12°C° 0 mm 2 mps 748 mmHg 93%
    01:00 +11°C° 0 mm 3 mps 748 mmHg 93%
    02:00 +12°C° 0 mm 2 mps 747 mmHg 94%
    03:00 +12°C° 0 mm 2 mps 747 mmHg 94%
    04:00 +11°C° 0 mm 3 mps 747 mmHg 93%
    05:00 +11°C° 0 mm 3 mps 746 mmHg 93%
    06:00 +11°C° 0 mm 3 mps 746 mmHg 90%
    07:00 +12°C° 0 mm 3 mps 746 mmHg 88%
    08:00 +12°C° 0 mm 4 mps 746 mmHg 86%
    09:00 +14°C° 0 mm 4 mps 746 mmHg 79%
    10:00 +17°C° 0 mm 4 mps 746 mmHg 72%
    11:00 +18°C° 0 mm 4 mps 745 mmHg 65%
    12:00 +19°C° 0 mm 4 mps 745 mmHg 62%
    13:00 +20°C° 0 mm 4 mps 745 mmHg 58%
    14:00 +21°C° 0 mm 4 mps 745 mmHg 55%
    15:00 +19°C° 0 mm 3 mps 744 mmHg 61%
    16:00 +18°C° 0 mm 3 mps 744 mmHg 66%
    17:00 +17°C° 0 mm 2 mps 744 mmHg 72%
    18:00 +16°C° 0 mm 2 mps 744 mmHg 75%
    19:00 +15°C° 0 mm 2 mps 744 mmHg 78%
    20:00 +14°C° 0 mm 2 mps 744 mmHg 81%
    21:00 +14°C° 0 mm 2 mps 744 mmHg 83%
    22:00 +14°C° 0 mm 2 mps 744 mmHg 85%
    23:00 +13°C° 0 mm 2 mps 744 mmHg 88%

    Tomorrow, 19 October, Thursday

    Time Temperature Precipitation Wind Pressure Humidity
    00:00 +13°C° 0 mm 2 mps 744 mmHg 89%
    01:00 +13°C° 0 mm 2 mps 744 mmHg 90%
    02:00 +12°C° 0 mm 1 mps 744 mmHg 92%
    03:00 +12°C° 0 mm 1 mps 744 mmHg 92%
    04:00 +12°C° 0 mm 1 mps 744 mmHg 93%
    05:00 +12°C° 0 mm 1 mps 744 mmHg 93%
    06:00 +12°C° 0 mm 1 mps 744 mmHg 92%
    07:00 +13°C° 0 mm 1 mps 744 mmHg 91%
    08:00 +13°C° 0 mm 1 mps 744 mmHg 89%
    09:00 +14°C° 0 mm 1 mps 744 mmHg 84%
    10:00 +16°C° 0 mm 1 mps 744 mmHg 78%
    11:00 +18°C° 0 mm 1 mps 745 mmHg 72%
    12:00 +19°C° 0 mm 1 mps 744 mmHg 69%
    13:00 +19°C° 0 mm 1 mps 744 mmHg 66%
    14:00 +20°C° 0 mm 1 mps 744 mmHg 64%
    15:00 +19°C° 0 mm 1 mps 744 mmHg 69%
    16:00 +18°C° 0 mm 1 mps 744 mmHg 74%
    17:00 +16°C° 0 mm 1 mps 744 mmHg 79%
    18:00 +15°C° 0 mm 2 mps 744 mmHg 82%
    19:00 +14°C° 0 mm 2 mps 744 mmHg 84%
    20:00 +14°C° 0 mm 2 mps 744 mmHg 86%
    21:00 +13°C° 0 mm 2 mps 744 mmHg 88%
    22:00 +13°C° 0 mm 2 mps 744 mmHg 89%
    23:00 +12°C° 0 mm 2 mps 744 mmHg 90%

    Day after tomorrow, 20 October, Friday

    Time Temperature Precipitation Wind Pressure Humidity
    00:00 +12°C° 0 mm 2 mps 744 mmHg 90%
    01:00 +10°C° 0 mm 2 mps 744 mmHg 91%
    02:00 +10°C° 0 mm 2 mps 744 mmHg 92%
    03:00 +10°C° 0 mm 2 mps 744 mmHg 91%
    04:00 +10°C° 0 mm 2 mps 745 mmHg 91%
    05:00 +9°C° 0 mm 3 mps 745 mmHg 90%
    06:00 +9°C° 0 mm 3 mps 745 mmHg 87%
    07:00 +10°C° 0 mm 3 mps 746 mmHg 85%
    08:00 +10°C° 0 mm 3 mps 746 mmHg 82%
    09:00 +10°C° 0 mm 3 mps 746 mmHg 77%
    10:00 +11°C° 0 mm 3 mps 747 mmHg 72%
    11:00 +11°C° 0 mm 4 mps 747 mmHg 67%
    12:00 +12°C° 0 mm 3 mps 747 mmHg 64%
    13:00 +13°C° 0 mm 3 mps 747 mmHg 60%
    14:00 +13°C° 0 mm 3 mps 747 mmHg 56%
    15:00 +12°C° 0 mm 3 mps 748 mmHg 58%
    16:00 +11°C° 0 mm 3 mps 748 mmHg 60%
    17:00 +10°C° 0 mm 3 mps 748 mmHg 62%
    18:00 +9°C° 0 mm 3 mps 748 mmHg 64%
    19:00 +8°C° 0 mm 3 mps 749 mmHg 66%
    20:00 +7°C° 0 mm 3 mps 749 mmHg 67%
    21:00 +7°C° 0 mm 3 mps 750 mmHg 70%
    22:00 +6°C° 0 mm 2 mps 750 mmHg 73%
    23:00 +5°C° 0 mm 2 mps 750 mmHg 76%

    21 October, Saturday

    Time Temperature Precipitation Wind Pressure Humidity
    00:00 +5°C° 0 mm 2 mps 750 mmHg 79%
    01:00 +4°C° 0 mm 2 mps 751 mmHg 82%
    02:00 +4°C° 0 mm 2 mps 751 mmHg 85%
    03:00 +4°C° 0 mm 2 mps 751 mmHg 87%
    04:00 +3°C° 0 mm 2 mps 751 mmHg 89%
    05:00 +3°C° 0 mm 2 mps 751 mmHg 91%
    06:00 +3°C° 0 mm 2 mps 751 mmHg 89%
    07:00 +3°C° 0 mm 2 mps 751 mmHg 87%
    08:00 +4°C° 0 mm 2 mps 751 mmHg 86%
    09:00 +5°C° 0 mm 2 mps 752 mmHg 78%
    10:00 +7°C° 0 mm 2 mps 752 mmHg 70%
    11:00 +9°C° 0 mm 3 mps 752 mmHg 62%
    12:00 +9°C° 0 mm 2 mps 752 mmHg 58%
    13:00 +10°C° 0 mm 2 mps 751 mmHg 54%
    14:00 +10°C° 0 mm 2 mps 751 mmHg 50%
    15:00 +9°C° 0 mm 2 mps 751 mmHg 55%
    16:00 +8°C° 0 mm 2 mps 751 mmHg 60%
    17:00 +7°C° 0 mm 2 mps 751 mmHg 65%
    18:00 +6°C° 0 mm 2 mps 751 mmHg 68%
    19:00 +5°C° 0 mm 2 mps 751 mmHg 71%
    20:00 +5°C° 0 mm 2 mps 751 mmHg 74%
    21:00 +4°C° 0 mm 2 mps 751 mmHg 74%
    22:00 +4°C° 0 mm 2 mps 751 mmHg 75%
    23:00 +4°C° 0 mm 2 mps 751 mmHg 76%

    22 October, Sunday

    Time Temperature Precipitation Wind Pressure Humidity
    00:00 +4°C° 0 mm 2 mps 751 mmHg 76%
    01:00 +4°C° 0 mm 2 mps 751 mmHg 76%
    02:00 +3°C° 0 mm 2 mps 751 mmHg 75%
    03:00 +3°C° 0 mm 2 mps 751 mmHg 75%
    04:00 +3°C° 0 mm 2 mps 751 mmHg 74%
    05:00 +3°C° 0 mm 2 mps 750 mmHg 73%
    06:00 +2°C° 0 mm 3 mps 750 mmHg 72%
    07:00 +2°C° 0 mm 3 mps 750 mmHg 71%
    08:00 +3°C° 0 mm 3 mps 750 mmHg 70%
    09:00 +4°C° 0 mm 3 mps 750 mmHg 65%
    10:00 +6°C° 0 mm 4 mps 750 mmHg 60%
    11:00 +7°C° 0 mm 4 mps 749 mmHg 54%
    12:00 +8°C° 0 mm 4 mps 749 mmHg 53%
    13:00 +10°C° 0 mm 4 mps 748 mmHg 51%
    14:00 +10°C° 0 mm 4 mps 748 mmHg 49%
    15:00 +8°C° 0 mm 4 mps 747 mmHg 53%
    16:00 +8°C° 0 mm 3 mps 747 mmHg 57%
    17:00 +7°C° 0 mm 3 mps 747 mmHg 62%
    18:00 +7°C° 0 mm 3 mps 747 mmHg 61%
    19:00 +7°C° 0 mm 3 mps 746 mmHg 61%
    20:00 +6°C° 0 mm 4 mps 746 mmHg 61%
    21:00 +6°C° 0 mm 4 mps 746 mmHg 60%
    22:00 +7°C° 0 mm 3 mps 746 mmHg 60%
    23:00 +7°C° 0 mm 3 mps 746 mmHg 60%

    23 October, Monday

    Time Temperature Precipitation Wind Pressure Humidity
    00:00 +7°C° 0 mm 3 mps 746 mmHg 58%
    01:00 +7°C° 0 mm 3 mps 745 mmHg 57%
    02:00 +7°C° 0 mm 3 mps 745 mmHg 55%
    03:00 +7°C° 0 mm 3 mps 745 mmHg 58%
    04:00 +7°C° 0 mm 3 mps 745 mmHg 60%
    05:00 +5°C° 0 mm 3 mps 744 mmHg 63%
    06:00 +5°C° 0.1 mm 3 mps 745 mmHg 66%
    07:00 +5°C° 0.1 mm 3 mps 745 mmHg 69%
    08:00 +7°C° 0.1 mm 3 mps 745 mmHg 71%
    09:00 +7°C° 0.1 mm 3 mps 745 mmHg 71%
    10:00 +8°C° 0.1 mm 3 mps 745 mmHg 71%
    11:00 +9°C° 0.1 mm 3 mps 745 mmHg 71%
    12:00 +9°C° 0.1 mm 3 mps 745 mmHg 70%
    13:00 +10°C° 0.1 mm 3 mps 745 mmHg 69%
    14:00 +11°C° 0.1 mm 3 mps 745 mmHg 68%
    15:00 +10°C° 0 mm 2 mps 745 mmHg 71%
    16:00 +9°C° 0 mm 2 mps 745 mmHg 74%
    17:00 +9°C° 0 mm 2 mps 745 mmHg 77%
    18:00 +8°C° 0 mm 2 mps 745 mmHg 77%
    19:00 +8°C° 0 mm 2 mps 746 mmHg 77%
    20:00 +7°C° 0 mm 2 mps 746 mmHg 76%
    21:00 +7°C° 0 mm 2 mps 746 mmHg 75%
    22:00 +7°C° 0 mm 2 mps 746 mmHg 74%
    23:00 +7°C° 0 mm 2 mps 746 mmHg 73%
    Show more